"read_dt","SO2 (ppb)","flags","PMT voltage (V)","lamp voltage (V)","lamp intensity (Hz)","internal temp (C)","react chamber temp (C)","sample flow (l/min)","pres (mmHg)","SO2 bkg (ppb)","SO2 coefficient"
2017-03-01 00:00:00,1702E-3,5C000400,-0724,0840,12076,027.4,045.4,0.223,768.7,01.15,0.508
2017-03-01 00:01:00,1561E-3,5C000400,-0724,0839,11961,027.4,045.4,0.224,768.7,01.15,0.508
2017-03-01 00:02:00,1678E-3,5C000400,-0724,0839,12102,027.4,045.4,0.223,768.7,01.15,0.508
2017-03-01 00:03:00,1695E-3,5C000400,-0724,0839,12156,027.4,045.4,0.223,768.7,01.15,0.508
2017-03-01 00:04:00,1656E-3,5C000400,-0724,0839,11953,027.4,045.4,0.223,768.7,01.15,0.508
2017-03-01 00:05:00,1579E-3,5C000400,-0724,0839,12038,027.4,045.4,0.223,768.7,01.15,0.508
2017-03-01 00:06:00,1677E-3,5C000400,-0724,0839,12081,027.4,045.4,0.224,768.7,01.15,0.508
2017-03-01 00:07:00,1649E-3,5C000400,-0724,0839,11980,027.4,045.4,0.223,768.6,01.15,0.508
2017-03-01 00:08:00,1642E-3,5C000400,-0724,0839,11866,027.4,045.4,0.223,768.6,01.15,0.508
2017-03-01 00:09:00,1643E-3,5C000400,-0724,0839,12129,027.4,045.4,0.223,768.6,01.15,0.508
2017-03-01 00:10:00,1690E-3,5C000400,-0724,0840,12172,027.4,045.4,0.223,768.6,01.15,0.508
2017-03-01 00:11:00,1660E-3,5C000400,-0724,0840,11962,027.4,045.4,0.224,768.6,01.15,0.508
2017-03-01 00:12:00,1592E-3,5C000400,-0724,0839,12068,027.4,045.4,0.223,768.6,01.15,0.508
2017-03-01 00:13:00,1755E-3,5C000400,-0724,0839,11998,027.4,045.4,0.223,768.6,01.15,0.508
2017-03-01 00:14:00,1550E-3,5C000400,-0724,0839,12167,027.4,045.4,0.223,768.6,01.15,0.508
2017-03-01 00:15:00,1754E-3,5C000400,-0724,0839,11962,027.4,045.4,0.223,768.6,01.15,0.508
2017-03-01 00:16:00,1642E-3,5C000400,-0724,0839,12004,027.4,045.4,0.223,768.6,01.15,0.508
2017-03-01 00:17:00,1717E-3,5C000400,-0724,0839,11990,027.5,045.4,0.223,768.6,01.15,0.508
2017-03-01 00:18:00,1694E-3,5C000400,-0724,0839,12126,027.4,045.4,0.223,768.6,01.15,0.508
2017-03-01 00:19:00,1636E-3,5C000400,-0724,0839,12044,027.5,045.4,0.223,768.6,01.15,0.508
2017-03-01 00:20:00,1733E-3,5C000400,-0724,0840,11959,027.5,045.4,0.223,768.5,01.15,0.508
2017-03-01 00:21:00,1673E-3,5C000400,-0724,0840,12108,027.5,045.4,0.223,768.5,01.15,0.508
2017-03-01 00:22:00,1653E-3,5C000400,-0724,0839,12084,027.5,045.4,0.223,768.5,01.15,0.508
2017-03-01 00:23:00,1651E-3,5C000400,-0724,0839,11977,027.5,045.4,0.223,768.6,01.15,0.508
2017-03-01 00:24:00,1667E-3,5C000400,-0724,0840,12125,027.5,045.4,0.223,768.5,01.15,0.508
2017-03-01 00:25:00,1722E-3,5C000400,-0724,0839,12014,027.5,045.4,0.223,768.5,01.15,0.508
2017-03-01 00:26:00,1623E-3,5C000400,-0724,0839,11987,027.5,045.4,0.223,768.5,01.15,0.508
2017-03-01 00:27:00,1900E-3,5C000400,-0724,0838,12094,027.5,045.4,0.223,768.5,01.15,0.508
2017-03-01 00:28:00,1771E-3,5C000400,-0724,0839,12075,027.5,045.4,0.223,768.5,01.15,0.508
2017-03-01 00:29:00,1749E-3,5C000400,-0724,0839,12003,027.5,045.4,0.223,768.5,01.15,0.508
2017-03-01 00:30:00,1700E-3,5C000400,-0724,0839,12050,027.5,045.4,0.223,768.5,01.15,0.508
2017-03-01 00:31:00,1773E-3,5C000400,-0724,0839,12099,027.5,045.4,0.223,768.5,01.15,0.508
2017-03-01 00:32:00,1715E-3,5C000400,-0724,0839,12075,027.5,045.4,0.223,768.5,01.15,0.508
2017-03-01 00:33:00,1661E-3,5C000400,-0724,0839,12116,027.5,045.4,0.223,768.5,01.15,0.508
2017-03-01 00:34:00,1769E-3,5C000400,-0724,0839,12061,027.5,045.4,0.223,768.5,01.15,0.508
2017-03-01 00:35:00,1708E-3,5C000400,-0724,0840,12101,027.5,045.4,0.223,768.4,01.15,0.508
2017-03-01 00:36:00,1663E-3,5C000400,-0724,0839,11960,027.5,045.4,0.224,768.4,01.15,0.508
2017-03-01 00:37:00,1668E-3,5C000400,-0724,0839,11966,027.5,045.4,0.223,768.4,01.15,0.508
2017-03-01 00:38:00,1678E-3,5C000400,-0724,0839,11996,027.5,045.4,0.224,768.5,01.15,0.508
2017-03-01 00:39:00,1683E-3,5C000400,-0724,0840,12126,027.5,045.4,0.223,768.5,01.15,0.508
2017-03-01 00:40:00,1690E-3,5C000400,-0724,0839,12102,027.5,045.4,0.223,768.5,01.15,0.508
2017-03-01 00:41:00,1742E-3,5C000400,-0724,0839,11965,027.5,045.4,0.223,768.5,01.15,0.508
2017-03-01 00:42:00,1620E-3,5C000400,-0724,0839,12052,027.5,045.4,0.223,768.5,01.15,0.508
2017-03-01 00:43:00,1660E-3,5C000400,-0724,0839,12108,027.5,045.4,0.223,768.5,01.15,0.508
2017-03-01 00:44:00,1737E-3,5C000400,-0724,0839,12012,027.5,045.4,0.223,768.5,01.15,0.508
2017-03-01 00:45:00,1770E-3,5C000400,-0724,0839,11992,027.5,045.4,0.223,768.5,01.15,0.508
2017-03-01 00:46:00,1680E-3,5C000400,-0724,0839,12023,027.5,045.4,0.223,768.5,01.15,0.508
2017-03-01 00:47:00,1643E-3,5C000400,-0724,0840,12097,027.5,045.4,0.223,768.4,01.15,0.508
2017-03-01 00:48:00,1700E-3,5C000400,-0724,0840,12100,027.5,045.4,0.223,768.5,01.15,0.508
2017-03-01 00:49:00,1626E-3,5C000400,-0724,0839,12014,027.5,045.4,0.223,768.5,01.15,0.508
2017-03-01 00:50:00,1599E-3,5C000400,-0724,0839,11999,027.5,045.4,0.223,768.5,01.15,0.508
2017-03-01 00:51:00,1703E-3,5C000400,-0724,0839,12114,027.5,045.4,0.223,768.5,01.15,0.508
2017-03-01 00:52:00,1611E-3,5C000400,-0724,0839,11989,027.5,045.4,0.223,768.5,01.15,0.508
2017-03-01 00:53:00,1697E-3,5C000400,-0724,0839,12075,027.5,045.4,0.223,768.5,01.15,0.508
2017-03-01 00:54:00,1667E-3,5C000400,-0724,0839,12049,027.5,045.4,0.223,768.5,01.15,0.508
2017-03-01 00:55:00,1691E-3,5C000400,-0724,0840,11964,027.5,045.4,0.223,768.4,01.15,0.508
2017-03-01 00:56:00,1607E-3,5C000400,-0724,0839,11931,027.5,045.4,0.223,768.5,01.15,0.508
2017-03-01 00:57:00,1640E-3,5C000400,-0724,0839,12053,027.5,045.4,0.223,768.5,01.15,0.508
2017-03-01 00:58:00,1637E-3,5C000400,-0724,0839,12034,027.5,045.4,0.223,768.5,01.15,0.508
2017-03-01 00:59:00,1722E-3,5C000400,-0724,0839,12002,027.6,045.4,0.223,768.5,01.15,0.508
2017-03-01 01:00:00,1724E-3,5C000400,-0724,0840,12077,027.6,045.4,0.223,768.5,01.15,0.508
2017-03-01 01:01:00,1729E-3,5C000400,-0724,0839,11989,027.6,045.4,0.223,768.4,01.15,0.508
2017-03-01 01:02:00,1732E-3,5C000400,-0724,0840,12010,027.6,045.4,0.223,768.4,01.15,0.508
2017-03-01 01:03:00,1692E-3,5C000400,-0724,0839,12159,027.6,045.4,0.223,768.4,01.15,0.508
2017-03-01 01:04:00,1738E-3,5C000400,-0724,0839,12016,027.6,045.4,0.223,768.4,01.15,0.508
2017-03-01 01:05:00,1695E-3,5C000400,-0724,0839,12086,027.6,045.4,0.223,768.4,01.15,0.508
2017-03-01 01:06:00,1769E-3,5C000400,-0724,0840,12026,027.6,045.4,0.223,768.4,01.15,0.508
2017-03-01 01:07:00,1656E-3,5C000400,-0724,0839,12107,027.6,045.4,0.223,768.4,01.15,0.508
2017-03-01 01:08:00,1661E-3,5C000400,-0724,0839,12035,027.6,045.4,0.223,768.4,01.15,0.508
2017-03-01 01:09:00,1762E-3,5C000400,-0724,0839,12096,027.6,045.4,0.223,768.4,01.15,0.508
2017-03-01 01:10:00,1817E-3,5C000400,-0724,0840,12153,027.6,045.4,0.223,768.4,01.15,0.508
2017-03-01 01:11:00,1697E-3,5C000400,-0724,0839,12047,027.6,045.4,0.223,768.4,01.15,0.508
2017-03-01 01:12:00,1719E-3,5C000400,-0724,0840,11728,027.6,045.4,0.223,768.4,01.15,0.508
2017-03-01 01:13:00,1673E-3,5C000400,-0724,0839,12031,027.6,045.4,0.223,768.4,01.15,0.508
2017-03-01 01:14:00,1707E-3,5C000400,-0724,0838,12041,027.6,045.5,0.223,768.4,01.15,0.508
2017-03-01 01:15:00,1614E-3,5C000400,-0724,0840,11934,027.6,045.5,0.223,768.4,01.15,0.508
2017-03-01 01:16:00,1660E-3,5C000400,-0724,0840,12211,027.6,045.5,0.223,768.4,01.15,0.508
2017-03-01 01:17:00,1642E-3,5C000400,-0724,0840,11900,027.6,045.4,0.223,768.4,01.15,0.508
2017-03-01 01:18:00,1666E-3,5C000400,-0724,0839,12123,027.6,045.4,0.223,768.4,01.15,0.508
2017-03-01 01:19:00,1790E-3,5C000400,-0724,0840,11946,027.6,045.4,0.223,768.4,01.15,0.508
2017-03-01 01:20:00,1729E-3,5C000400,-0724,0839,12103,027.6,045.4,0.223,768.4,01.15,0.508
2017-03-01 01:21:00,1690E-3,5C000400,-0724,0839,11998,027.6,045.4,0.223,768.4,01.15,0.508
2017-03-01 01:22:00,1684E-3,5C000400,-0724,0839,11964,027.6,045.4,0.223,768.4,01.15,0.508
2017-03-01 01:23:00,1676E-3,5C000400,-0724,0838,12064,027.7,045.4,0.223,768.4,01.15,0.508
2017-03-01 01:24:00,1616E-3,5C000400,-0724,0839,11943,027.6,045.4,0.223,768.4,01.15,0.508
2017-03-01 01:25:00,1646E-3,5C000400,-0724,0839,12075,027.6,045.4,0.223,768.4,01.15,0.508
2017-03-01 01:26:00,1671E-3,5C000400,-0724,0839,12052,027.6,045.4,0.223,768.4,01.15,0.508
2017-03-01 01:27:00,1659E-3,5C000400,-0724,0840,11848,027.7,045.5,0.223,768.4,01.15,0.508
2017-03-01 01:28:00,1724E-3,5C000400,-0724,0839,12092,027.7,045.4,0.223,768.4,01.15,0.508
2017-03-01 01:29:00,1627E-3,5C000400,-0724,0840,12031,027.7,045.4,0.223,768.4,01.15,0.508
2017-03-01 01:30:00,1833E-3,5C000400,-0724,0839,11978,027.7,045.4,0.223,768.4,01.15,0.508
2017-03-01 01:31:00,1763E-3,5C000400,-0724,0840,11978,027.7,045.4,0.223,768.4,01.15,0.508
2017-03-01 01:32:00,1766E-3,5C000400,-0724,0839,12144,027.7,045.4,0.223,768.4,01.15,0.508
2017-03-01 01:33:00,1770E-3,5C000400,-0724,0840,12003,027.7,045.4,0.223,768.4,01.15,0.508
2017-03-01 01:34:00,1704E-3,5C000400,-0724,0840,11858,027.7,045.4,0.223,768.4,01.15,0.508
2017-03-01 01:35:00,1748E-3,5C000400,-0724,0839,12067,027.7,045.4,0.223,768.3,01.15,0.508
2017-03-01 01:36:00,1731E-3,5C000400,-0724,0839,11915,027.7,045.4,0.223,768.4,01.15,0.508
2017-03-01 01:37:00,1970E-3,5C000400,-0724,0839,12008,027.7,045.4,0.223,768.4,01.15,0.508
2017-03-01 01:38:00,1782E-3,5C000400,-0724,0839,12161,027.7,045.4,0.223,768.4,01.15,0.508
2017-03-01 01:39:00,1751E-3,5C000400,-0724,0840,12055,027.7,045.4,0.223,768.4,01.15,0.508
2017-03-01 01:40:00,1801E-3,5C000400,-0724,0839,11840,027.7,045.4,0.222,768.4,01.15,0.508
2017-03-01 01:41:00,1746E-3,5C000400,-0724,0840,12090,027.8,045.5,0.223,768.4,01.15,0.508
2017-03-01 01:42:00,1680E-3,5C000400,-0724,0840,11993,027.8,045.4,0.223,768.4,01.15,0.508
2017-03-01 01:43:00,1729E-3,5C000400,-0724,0840,11986,027.8,045.4,0.223,768.4,01.15,0.508
2017-03-01 01:44:00,1627E-3,5C000400,-0724,0840,12123,027.8,045.4,0.223,768.4,01.15,0.508
2017-03-01 01:45:00,1795E-3,5C000400,-0724,0840,12175,027.8,045.4,0.222,768.3,01.15,0.508
2017-03-01 01:46:00,1779E-3,5C000400,-0724,0839,12024,027.8,045.4,0.223,768.4,01.15,0.508
2017-03-01 01:47:00,1790E-3,5C000400,-0724,0840,12076,027.8,045.4,0.223,768.4,01.15,0.508
2017-03-01 01:48:00,1756E-3,5C000400,-0724,0839,12138,027.8,045.5,0.223,768.4,01.15,0.508
2017-03-01 01:49:00,1761E-3,5C000400,-0724,0839,12247,027.8,045.4,0.223,768.3,01.15,0.508
2017-03-01 01:50:00,1634E-3,5C000400,-0724,0839,12012,027.8,045.4,0.222,768.3,01.15,0.508
2017-03-01 01:51:00,1698E-3,5C000400,-0724,0840,12227,027.8,045.4,0.223,768.3,01.15,0.508
2017-03-01 01:52:00,1757E-3,5C000400,-0724,0839,12019,027.8,045.4,0.223,768.3,01.15,0.508
2017-03-01 01:53:00,1640E-3,5C000400,-0724,0839,11946,027.8,045.4,0.222,768.4,01.15,0.508
2017-03-01 01:54:00,1815E-3,5C000400,-0724,0839,11990,027.8,045.4,0.223,768.4,01.15,0.508
2017-03-01 01:55:00,1774E-3,5C000400,-0724,0839,12153,027.8,045.4,0.222,768.4,01.15,0.508
2017-03-01 01:56:00,1712E-3,5C000400,-0724,0840,12032,027.8,045.4,0.223,768.4,01.15,0.508
2017-03-01 01:57:00,1768E-3,5C000400,-0724,0839,12021,027.8,045.4,0.223,768.4,01.15,0.508
2017-03-01 01:58:00,1660E-3,5C000400,-0724,0839,12014,027.8,045.4,0.222,768.4,01.15,0.508
2017-03-01 01:59:00,1636E-3,5C000400,-0724,0839,12002,027.9,045.4,0.223,768.3,01.15,0.508
2017-03-01 02:00:00,1857E-3,5C000400,-0724,0839,11994,027.9,045.4,0.222,768.3,01.15,0.508
2017-03-01 02:01:00,1844E-3,5C000400,-0724,0839,12032,027.9,045.4,0.223,768.3,01.15,0.508
2017-03-01 02:02:00,1872E-3,5C000400,-0724,0840,12051,027.9,045.4,0.223,768.3,01.15,0.508
2017-03-01 02:03:00,1816E-3,5C000400,-0724,0840,12022,027.9,045.4,0.222,768.3,01.15,0.508
2017-03-01 02:04:00,1749E-3,5C000400,-0724,0839,12015,027.9,045.4,0.223,768.3,01.15,0.508
2017-03-01 02:05:00,1643E-3,5C000400,-0724,0840,11953,027.9,045.4,0.222,768.3,01.15,0.508
2017-03-01 02:06:00,1712E-3,5C000400,-0724,0839,12146,027.9,045.4,0.222,768.3,01.15,0.508
2017-03-01 02:07:00,1748E-3,5C000400,-0724,0840,12051,027.9,045.4,0.223,768.3,01.15,0.508
2017-03-01 02:08:00,1948E-3,5C000400,-0724,0839,12083,027.9,045.4,0.222,768.3,01.15,0.508
2017-03-01 02:09:00,1798E-3,5C000400,-0724,0839,12104,027.9,045.4,0.223,768.3,01.15,0.508
2017-03-01 02:10:00,1822E-3,5C000400,-0724,0839,12044,027.9,045.4,0.222,768.3,01.15,0.508
2017-03-01 02:11:00,1780E-3,5C000400,-0724,0840,11928,027.9,045.4,0.223,768.3,01.15,0.508
2017-03-01 02:12:00,1956E-3,5C000400,-0724,0840,12084,027.9,045.4,0.222,768.3,01.15,0.508
2017-03-01 02:13:00,1770E-3,5C000400,-0724,0840,12083,027.9,045.4,0.222,768.3,01.15,0.508
2017-03-01 02:14:00,1748E-3,5C000400,-0724,0840,12006,027.9,045.4,0.222,768.3,01.15,0.508
2017-03-01 02:15:00,1867E-3,5C000400,-0724,0839,11958,027.9,045.4,0.222,768.3,01.15,0.508
2017-03-01 02:16:00,1918E-3,5C000400,-0724,0839,12035,027.9,045.4,0.222,768.3,01.15,0.508
2017-03-01 02:17:00,1770E-3,5C000400,-0724,0839,11948,027.9,045.4,0.222,768.3,01.15,0.508
2017-03-01 02:18:00,2012E-3,5C000400,-0724,0839,12070,028.0,045.4,0.222,768.3,01.15,0.508
2017-03-01 02:19:00,1927E-3,5C000400,-0724,0841,12213,027.9,045.5,0.222,768.2,01.15,0.508
2017-03-01 02:20:00,1724E-3,5C000400,-0724,0839,12036,028.0,045.4,0.222,768.3,01.15,0.508
2017-03-01 02:21:00,1786E-3,5C000400,-0724,0839,11933,028.0,045.4,0.222,768.3,01.15,0.508
2017-03-01 02:22:00,1874E-3,5C000400,-0724,0840,12121,028.0,045.4,0.222,768.3,01.15,0.508
2017-03-01 02:23:00,1799E-3,5C000400,-0724,0840,12014,028.0,045.4,0.222,768.3,01.15,0.508
2017-03-01 02:24:00,1821E-3,5C000400,-0724,0841,11907,028.0,045.4,0.222,768.3,01.15,0.508
2017-03-01 02:25:00,1708E-3,5C000400,-0724,0839,11940,028.0,045.5,0.222,768.2,01.15,0.508
2017-03-01 02:26:00,1748E-3,5C000400,-0724,0840,12044,028.0,045.4,0.222,768.3,01.15,0.508
2017-03-01 02:27:00,1901E-3,5C000400,-0724,0839,11929,028.0,045.4,0.222,768.3,01.15,0.508
2017-03-01 02:28:00,1739E-3,5C000400,-0724,0839,12071,028.0,045.4,0.222,768.3,01.15,0.508
2017-03-01 02:29:00,1926E-3,5C000400,-0724,0839,11999,028.0,045.5,0.222,768.3,01.15,0.508
2017-03-01 02:30:00,1893E-3,5C000400,-0724,0840,12126,028.0,045.5,0.222,768.2,01.15,0.508
2017-03-01 02:31:00,1959E-3,5C000400,-0724,0839,11997,028.0,045.4,0.222,768.2,01.15,0.508
2017-03-01 02:32:00,1879E-3,5C000400,-0724,0840,12020,028.0,045.4,0.222,768.2,01.15,0.508
2017-03-01 02:33:00,1694E-3,5C000400,-0724,0840,11916,028.0,045.4,0.222,768.2,01.15,0.508
2017-03-01 02:34:00,1909E-3,5C000400,-0724,0840,12021,028.0,045.4,0.222,768.2,01.15,0.508
2017-03-01 02:35:00,1829E-3,5C000400,-0724,0839,12094,028.0,045.4,0.223,768.1,01.15,0.508
2017-03-01 02:36:00,1837E-3,5C000400,-0724,0840,12147,028.0,045.5,0.223,768.1,01.15,0.508
2017-03-01 02:37:00,1897E-3,5C000400,-0724,0839,12026,028.0,045.4,0.222,768.1,01.15,0.508
2017-03-01 02:38:00,1783E-3,5C000400,-0724,0840,12104,028.0,045.4,0.222,768.2,01.15,0.508
2017-03-01 02:39:00,1980E-3,5C000400,-0724,0839,12139,028.1,045.4,0.222,768.2,01.15,0.508
2017-03-01 02:40:00,1957E-3,5C000400,-0724,0839,12007,028.1,045.4,0.222,768.2,01.15,0.508
2017-03-01 02:41:00,1783E-3,5C000400,-0724,0839,12037,028.1,045.4,0.222,768.2,01.15,0.508
2017-03-01 02:42:00,1658E-3,5C000400,-0724,0839,12094,028.1,045.4,0.222,768.2,01.15,0.508
2017-03-01 02:43:00,1837E-3,5C000400,-0724,0839,12007,028.1,045.4,0.222,768.2,01.15,0.508
2017-03-01 02:44:00,1781E-3,5C000400,-0724,0839,12055,028.1,045.4,0.222,768.2,01.15,0.508
2017-03-01 02:45:00,1771E-3,5C000400,-0724,0839,12024,028.1,045.4,0.222,768.2,01.15,0.508
2017-03-01 02:46:00,1815E-3,5C000400,-0724,0839,12075,028.1,045.4,0.222,768.2,01.15,0.508
2017-03-01 02:47:00,1915E-3,5C000400,-0724,0839,12058,028.1,045.5,0.222,768.1,01.15,0.508
2017-03-01 02:48:00,1827E-3,5C000400,-0724,0839,12029,028.1,045.5,0.222,768.1,01.15,0.508
2017-03-01 02:49:00,1846E-3,5C000400,-0724,0839,11924,028.1,045.5,0.222,768.1,01.15,0.508
2017-03-01 02:50:00,1788E-3,5C000400,-0724,0840,12007,028.1,045.5,0.222,768.1,01.15,0.508
2017-03-01 02:51:00,1769E-3,5C000400,-0724,0839,11994,028.1,045.4,0.222,768.1,01.15,0.508
2017-03-01 02:52:00,1862E-3,5C000400,-0724,0839,11986,028.1,045.4,0.222,768.1,01.15,0.508
2017-03-01 02:53:00,1672E-3,5C000400,-0724,0840,11953,028.1,045.5,0.222,768.1,01.15,0.508
2017-03-01 02:54:00,1742E-3,5C000400,-0724,0840,12049,028.2,045.4,0.222,768.1,01.15,0.508
2017-03-01 02:55:00,1804E-3,5C000400,-0724,0840,12117,028.1,045.5,0.222,768.1,01.15,0.508
2017-03-01 02:56:00,1793E-3,5C000400,-0724,0840,12063,028.2,045.5,0.222,768.1,01.15,0.508
2017-03-01 02:57:00,1732E-3,5C000400,-0724,0840,11921,028.2,045.4,0.222,768.1,01.15,0.508
2017-03-01 02:58:00,1796E-3,5C000400,-0724,0839,12033,028.2,045.4,0.222,768.1,01.15,0.508
2017-03-01 02:59:00,1665E-3,5C000400,-0724,0840,12052,028.2,045.5,0.222,768.1,01.15,0.508
2017-03-01 03:00:00,1813E-3,5C000400,-0724,0840,12032,028.2,045.5,0.221,768.1,01.15,0.508
2017-03-01 03:01:00,1764E-3,5C000400,-0724,0840,12156,028.2,045.4,0.222,768.1,01.15,0.508
2017-03-01 03:02:00,1594E-3,5C000400,-0724,0840,12105,028.2,045.4,0.222,768.1,01.15,0.508
2017-03-01 03:03:00,1797E-3,5C000400,-0724,0840,12163,028.2,045.4,0.222,768.0,01.15,0.508
2017-03-01 03:04:00,1709E-3,5C000400,-0724,0840,12050,028.2,045.5,0.222,768.0,01.15,0.508
2017-03-01 03:05:00,1743E-3,5C000400,-0724,0840,12093,028.2,045.4,0.222,768.0,01.15,0.508
2017-03-01 03:06:00,1737E-3,5C000400,-0724,0840,11958,028.2,045.5,0.222,768.0,01.15,0.508
2017-03-01 03:07:00,1966E-3,5C000400,-0724,0840,12041,028.2,045.5,0.221,768.0,01.15,0.508
2017-03-01 03:08:00,1838E-3,5C000400,-0724,0840,11932,028.2,045.4,0.222,768.0,01.15,0.508
2017-03-01 03:09:00,1773E-3,5C000400,-0724,0840,12020,028.2,045.4,0.221,768.0,01.15,0.508
2017-03-01 03:10:00,1713E-3,5C000400,-0724,0839,12033,028.2,045.4,0.222,768.0,01.15,0.508
2017-03-01 03:11:00,1679E-3,5C000400,-0724,0840,12104,028.2,045.5,0.222,768.0,01.15,0.508
2017-03-01 03:12:00,1692E-3,5C000400,-0724,0839,11986,028.2,045.4,0.222,768.0,01.15,0.508
2017-03-01 03:13:00,1719E-3,5C000400,-0724,0840,11985,028.3,045.4,0.222,768.0,01.15,0.508
2017-03-01 03:14:00,1718E-3,5C000400,-0724,0839,12176,028.3,045.5,0.221,768.0,01.15,0.508
2017-03-01 03:15:00,1678E-3,5C000400,-0724,0840,12083,028.3,045.5,0.222,768.0,01.15,0.508
2017-03-01 03:16:00,1675E-3,5C000400,-0724,0840,12032,028.3,045.5,0.221,768.0,01.15,0.508
2017-03-01 03:17:00,1642E-3,5C000400,-0724,0840,12067,028.3,045.5,0.222,768.0,01.15,0.508
2017-03-01 03:18:00,1652E-3,5C000400,-0724,0839,11941,028.3,045.5,0.221,768.0,01.15,0.508
2017-03-01 03:19:00,1597E-3,5C000400,-0724,0840,11984,028.3,045.4,0.222,768.0,01.15,0.508
2017-03-01 03:20:00,1802E-3,5C000400,-0724,0840,12145,028.3,045.5,0.222,768.0,01.15,0.508
2017-03-01 03:21:00,1663E-3,5C000400,-0724,0839,12099,028.3,045.5,0.221,768.0,01.15,0.508
2017-03-01 03:22:00,1736E-3,5C000400,-0724,0840,12079,028.3,045.5,0.222,768.0,01.15,0.508
2017-03-01 03:23:00,1665E-3,5C000400,-0724,0839,11970,028.3,045.4,0.221,768.0,01.15,0.508
2017-03-01 03:24:00,1735E-3,5C000400,-0724,0840,12053,028.3,045.4,0.222,768.0,01.15,0.508
2017-03-01 03:25:00,1696E-3,5C000400,-0724,0839,12164,028.3,045.5,0.221,768.0,01.15,0.508
2017-03-01 03:26:00,1875E-3,5C000400,-0724,0839,12205,028.3,045.5,0.222,768.0,01.15,0.508
2017-03-01 03:27:00,1719E-3,5C000400,-0724,0839,12074,028.3,045.4,0.222,768.0,01.15,0.508
2017-03-01 03:28:00,1785E-3,5C000400,-0724,0840,12092,028.3,045.4,0.221,767.9,01.15,0.508
2017-03-01 03:29:00,1724E-3,5C000400,-0724,0840,11995,028.4,045.5,0.222,767.9,01.15,0.508
2017-03-01 03:30:00,1715E-3,5C000400,-0724,0840,12076,028.4,045.4,0.221,767.9,01.15,0.508
2017-03-01 03:31:00,1785E-3,5C000400,-0724,0839,12093,028.4,045.5,0.222,767.9,01.15,0.508
2017-03-01 03:32:00,1706E-3,5C000400,-0724,0840,12014,028.4,045.5,0.221,767.9,01.15,0.508
2017-03-01 03:33:00,1640E-3,5C000400,-0724,0841,12031,028.4,045.4,0.222,767.9,01.15,0.508
2017-03-01 03:34:00,1632E-3,5C000400,-0724,0840,11968,028.4,045.4,0.221,767.9,01.15,0.508
2017-03-01 03:35:00,1755E-3,5C000400,-0724,0839,12016,028.4,045.4,0.222,767.9,01.15,0.508
2017-03-01 03:36:00,1841E-3,5C000400,-0724,0839,11966,028.4,045.5,0.222,767.9,01.15,0.508
2017-03-01 03:37:00,1826E-3,5C000400,-0724,0840,12108,028.4,045.5,0.222,767.9,01.15,0.508
2017-03-01 03:38:00,1749E-3,5C000400,-0724,0840,12058,028.4,045.5,0.221,767.9,01.15,0.508
2017-03-01 03:39:00,1790E-3,5C000400,-0724,0839,12072,028.4,045.5,0.221,767.9,01.15,0.508
2017-03-01 03:40:00,1740E-3,5C000400,-0724,0840,11993,028.4,045.4,0.221,767.9,01.15,0.508
2017-03-01 03:41:00,1772E-3,5C000400,-0724,0840,12032,028.4,045.4,0.221,767.9,01.15,0.508
2017-03-01 03:42:00,1738E-3,5C000400,-0724,0840,11929,028.5,045.4,0.221,767.9,01.15,0.508
2017-03-01 03:43:00,1746E-3,5C000400,-0724,0840,12082,028.5,045.5,0.221,767.9,01.15,0.508
2017-03-01 03:44:00,1704E-3,5C000400,-0724,0839,12092,028.4,045.5,0.221,767.9,01.15,0.508
2017-03-01 03:45:00,1758E-3,5C000400,-0724,0840,12029,028.4,045.5,0.221,767.9,01.15,0.508
2017-03-01 03:46:00,1701E-3,5C000400,-0724,0840,12118,028.5,045.5,0.221,767.9,01.15,0.508
2017-03-01 03:47:00,1734E-3,5C000400,-0724,0839,12090,028.5,045.5,0.221,767.9,01.15,0.508
2017-03-01 03:48:00,1680E-3,5C000400,-0724,0839,12125,028.5,045.5,0.221,767.9,01.15,0.508
2017-03-01 03:49:00,1636E-3,5C000400,-0724,0840,12025,028.5,045.5,0.221,767.9,01.15,0.508
2017-03-01 03:50:00,1775E-3,5C000400,-0724,0840,12068,028.5,045.4,0.221,767.9,01.15,0.508
2017-03-01 03:51:00,1645E-3,5C000400,-0724,0840,12108,028.5,045.4,0.221,767.9,01.15,0.508
2017-03-01 03:52:00,1719E-3,5C000400,-0724,0839,12016,028.5,045.5,0.221,767.9,01.15,0.508
2017-03-01 03:53:00,1637E-3,5C000400,-0724,0840,11989,028.5,045.5,0.221,767.9,01.15,0.508
2017-03-01 03:54:00,1823E-3,5C000400,-0724,0839,11969,028.5,045.5,0.221,767.9,01.15,0.508
2017-03-01 03:55:00,1776E-3,5C000400,-0724,0840,11986,028.5,045.4,0.221,767.9,01.15,0.508
2017-03-01 03:56:00,1805E-3,5C000400,-0724,0839,11971,028.5,045.4,0.221,767.9,01.15,0.508
2017-03-01 03:57:00,1736E-3,5C000400,-0724,0839,12125,028.5,045.5,0.221,767.9,01.15,0.508
2017-03-01 03:58:00,1691E-3,5C000400,-0724,0840,12068,028.5,045.5,0.221,767.9,01.15,0.508
2017-03-01 03:59:00,1756E-3,5C000400,-0724,0839,12081,028.5,045.5,0.221,767.8,01.15,0.508
2017-03-01 04:00:00,1773E-3,5C000400,-0724,0840,11991,028.5,045.5,0.221,767.8,01.15,0.508
2017-03-01 04:01:00,1617E-3,5C000400,-0724,0839,12064,028.6,045.4,0.221,767.8,01.15,0.508
2017-03-01 04:02:00,1894E-3,5C000400,-0724,0840,12107,028.6,045.4,0.221,767.8,01.15,0.508
2017-03-01 04:03:00,1665E-3,5C000400,-0724,0839,12057,028.6,045.5,0.221,767.8,01.15,0.508
2017-03-01 04:04:00,1694E-3,5C000400,-0724,0840,12121,028.6,045.4,0.221,767.8,01.15,0.508
2017-03-01 04:05:00,1732E-3,5C000400,-0724,0840,12085,028.6,045.4,0.221,767.7,01.15,0.508
2017-03-01 04:06:00,1464E-3,5C000400,-0724,0840,12023,028.6,045.5,0.221,767.7,01.15,0.508
2017-03-01 04:07:00,1728E-3,5C000400,-0724,0840,12034,028.6,045.5,0.221,767.7,01.15,0.508
2017-03-01 04:08:00,1679E-3,5C000400,-0724,0840,12054,028.6,045.4,0.221,767.7,01.15,0.508
2017-03-01 04:09:00,1665E-3,5C000400,-0724,0840,12102,028.6,045.5,0.221,767.7,01.15,0.508
2017-03-01 04:10:00,1679E-3,5C000400,-0724,0839,11954,028.6,045.5,0.221,767.7,01.15,0.508
2017-03-01 04:11:00,1752E-3,5C000400,-0724,0840,11845,028.6,045.4,0.220,767.7,01.15,0.508
2017-03-01 04:12:00,1709E-3,5C000400,-0724,0839,11915,028.6,045.5,0.221,767.8,01.15,0.508
2017-03-01 04:13:00,1781E-3,5C000400,-0724,0841,12092,028.6,045.5,0.220,767.8,01.15,0.508
2017-03-01 04:14:00,1693E-3,5C000400,-0724,0839,12058,028.6,045.5,0.221,767.7,01.15,0.508
2017-03-01 04:15:00,1722E-3,5C000400,-0724,0840,12024,028.6,045.5,0.221,767.7,01.15,0.508
2017-03-01 04:16:00,1616E-3,5C000400,-0724,0840,11953,028.6,045.5,0.221,767.8,01.15,0.508
2017-03-01 04:17:00,1771E-3,5C000400,-0724,0839,11994,028.7,045.5,0.221,767.8,01.15,0.508
2017-03-01 04:18:00,1644E-3,5C000400,-0724,0839,11994,028.7,045.5,0.221,767.8,01.15,0.508
2017-03-01 04:19:00,1652E-3,5C000400,-0724,0840,12024,028.7,045.5,0.221,767.8,01.15,0.508
2017-03-01 04:20:00,1591E-3,5C000400,-0724,0840,12128,028.7,045.5,0.221,767.8,01.15,0.508